Regional Weather Roundup
Issued by NWS

Home | Current Version | Previous Version | Text Only | Print | Product List | Glossary Off
Versions: 1 2 3 4 5 6 7 8 9 10 11 12 13 14 15 16 17 18 19 20 21 22 23 24 25 26 27 28 29 30 31 32 33 34 35 36 37 38 39 40 41 42 43 44 45 46 47 48 49 50

000
ASUS43 KMKX 020300
RWRWI

WISCONSIN REGIONAL WEATHER ROUNDUP
NATIONAL WEATHER SERVICE MILWAUKEE/SULLIVAN WI
1000 PM CDT WED OCT 01 2014

NOTE: "FAIR" INDICATES FEW OR NO CLOUDS BELOW 12,000 FEET WITH NO
SIGNIFICANT WEATHER AND/OR OBSTRUCTIONS TO VISIBILITY.

WIZ001-002-006>008-014>016-023>028-020400-
NORTHWEST WISCONSIN

CITY           SKY/WX    TMP DP  RH WIND       PRES   REMARKS
SUPERIOR ARPT  CLOUDY    52  51  99 CALM      29.82S
ASHLAND        CLOUDY    54  53  97 CALM      29.84S
HAYWARD        CLOUDY    54  54 100 SW5       29.86R
SIREN          CLOUDY    54  53  97 CALM      29.84R FOG
CUMBERLAND     CLOUDY    52  52 100 S3        29.84S FOG
RICE LAKE      CLOUDY    54  53  95 SE5       29.86S FOG
CHETEK         CLOUDY    55  54  98 CALM      29.85S FOG
LADYSMITH      CLOUDY    55  54  96 CALM      29.88R FOG
EAU CLAIRE     CLOUDY    56  54  93 CALM      29.84S FOG
MENOMONIE      CLOUDY    56  55  97 E3        29.85R FOG
NEW RICHMOND   CLOUDY    55  55 100 CALM      29.84R FOG
OSCEOLA        CLOUDY    56  56 100 CALM      29.85S FOG
$$

WIZ003>005-009-010-017-018-020400-
NORTH CENTRAL WISCONSIN

CITY           SKY/WX    TMP DP  RH WIND       PRES   REMARKS
MANITOWISH WTR DRIZZLE   54  54 100 S9        29.87R
ARBOR VITAE    CLOUDY    57  55  94 S5        29.88R FOG
WOODRUFF       CLOUDY    57  55  94 S5        29.88R FOG
RHINELANDER    CLOUDY    54  51  90 S7        29.89S
EAGLE RIVER    CLOUDY    53  53  97 S6        29.88S FOG
LAND O LAKES   CLOUDY    54  52  94 S3        29.89S FOG
PHILLIPS       CLOUDY    54  54  98 S5        29.87R FOG
TOMAHAWK       CLOUDY    55  52  89 SE3       29.89R
MEDFORD        CLOUDY    56  53  92 SE5       29.86S
MERRILL        CLOUDY    56  54  91 SE3       29.88S
$$

WIZ029-030-035-036-043>047-020400-
CENTRAL WISCONSIN

CITY           SKY/WX    TMP DP  RH WIND       PRES   REMARKS
WAUSAU         CLOUDY    56  52  86 SE9       29.88S
MOSINEE        CLOUDY    55  54  94 E8        29.90R
MARSHFIELD     CLOUDY    58  54  86 SE6       29.87R
STEVENS POINT  CLOUDY    56  51  84 SE8       29.89S
WAUPACA        LGT RAIN  58  54  85 SE6       29.91S
WAUTOMA        NOT AVBL
WISC RAPIDS    LGT RAIN  59  54  83 SE6       29.89R
CAMP DOUGLAS   NOT AVBL
$$

WIZ011>013-019>022-031-037>040-048>050-020400-
NORTHEAST WISCONSIN

CITY           SKY/WX    TMP DP  RH WIND       PRES   REMARKS
ANTIGO         CLOUDY    53  51  94 SE8       29.91R
SHAWANO        CLOUDY    56  52  86 SE6       29.92S
OCONTO         CLOUDY    55  53  93 S6        29.94R
STURGEON BAY   NOT AVBL
GREEN BAY      CLOUDY    56  52  86 SE6       29.93S
MANITOWOC      NOT AVBL
APPLETON       DRIZZLE   57  52  82 SE12      29.92S
CLINTONVILLE   HVY RAIN  54  52  94 E5        29.91S
OSHKOSH        CLOUDY    57  54  89 SE7       29.90S
$$

WIZ032>034-041-042-053>061-020400-
SOUTHWEST WISCONSIN

CITY           SKY/WX    TMP DP  RH WIND       PRES   REMARKS
LA CROSSE      CLOUDY    62  58  86 NW5       29.84R
SPARTA         CLOUDY    60  56  88 CALM      29.86R
VIROQUA        CLOUDY    64  56  78 SE6       29.85S
BOSCOBEL       CLOUDY    66  59  78 CALM      29.85R
PRAIRIE DU CHI CLOUDY    64  58  80 E3        29.83S
PLATTEVILLE    CLOUDY    67  59  75 SE5       29.87S
$$

WIZ056-057-062-063-064-067-068-020400-
SOUTH CENTRAL WISCONSIN

CITY           SKY/WX    TMP DP  RH WIND       PRES   REMARKS
REEDSBURG      CLOUDY    63  56  79 SE5       29.86S
BARABOO/DELLS  CLOUDY    62  53  72 CALM      29.87S
LONE ROCK      NOT AVBL
MINERAL POINT  CLOUDY    66  55  68 SE7       29.87S
MADISON        MOCLDY    61  53  75 SE5       29.88S
MIDDLETON      CLOUDY    63  53  71 SE7       29.88S
WATERTOWN      CLOUDY    60  54  80 SE7       29.89S
MONROE         CLOUDY    63  55  77 E7        29.88S
JANESVILLE     CLOUDY    63  52  67 SE5       29.88S
$$

WIZ051-052-058>065-066-070>072-020400-
SOUTHEAST WISCONSIN

CITY           SKY/WX    TMP DP  RH WIND       PRES   REMARKS
MILWAUKEE      CLOUDY    63  55  75 SE9       29.92S
WAUKESHA       CLOUDY    59  52  77 SE8       29.93S
MILWAUKEE/TIMM CLOUDY    61  54  77 SE5       29.93R
RACINE         CLOUDY    64  53  67 SE10G18   29.94S
BURLINGTON     MOCLDY    58  53  83 CALM      29.91R
KENOSHA        NOT AVBL
FOND DU LAC    LGT RAIN  58  53  84 SE6       29.91R
SHEBOYGAN      CLOUDY    57  53  86 SE3       29.93F
WEST BEND      CLOUDY    55  52  88 SE5       29.92S
JUNEAU         CLOUDY    59  52  79 SE7       29.90S
$$

LSZ147-162-020400-
LAKE SUPERIOR

STATION/POSITION TIME  TEMP    WIND        PRES    WAVE
                       AIR SEA DIR/SP/G            HT/PER
                 (UTC) (F)     (DEG/KT/KT) (MB)    (FT/S)
W MID LAKE BUOY  0150   50 50  100/  4/  6 1010.5R   0
DEVILS ISLAND    0200   52     150/  6/  7 1010.4S
SAXON HARBOR     0200   53        CALM     1010.2S
$$

LMZ867-665-643>646-020400-
LAKE MICHIGAN

STATION/POSITION TIME  TEMP    WIND        PRES    WAVE
                       AIR SEA DIR/SP/G            HT/PER
                 (UTC) (F)     (DEG/KT/KT) (MB)    (FT/S)
CHAMBERS ISLAND  0200   56     160/  6/ 11 1014.2F
S GREEN BAY BUOY 0200   57                 1014.7F
N MID LAKE BUOY  0150   56 58  180/ 10/ 12 1014.6S   1/ 4
NORTHPORT PIER   0200   56     160/  5/ 11 1014.6R
SISTER BAY       0127          180/  9/ 11   N/A
KEWAUNEE LAKESHO 0200   55                   N/A
SHEBOYGAN LAKESH 0200   57 57  150/  7/  8 1014.0F
PORT WASHINGTON  0240   59      80/  1/  3 1013.9F
ATWATER BUOY     0200   59     120/ 10/ 12 1014.2F
MILWAUKEE LAKESH 0200   60     140/  4/  5   N/A
S MID LAKE BUOY  0150   63 62  130/ 12/ 14 1014.1S   2/ 3
KENOSHA   LAKESH 0200   63     140/ 14/ 16 1012.9S
$$

TC  - TEMPERATURE IN CELSIUS
VSB - VISIBILITY IN STATUTE MILES
WCI - WIND CHILL INDEX
HX  - HEAT INDEX




USA.gov is the U.S. government's official web portal to all federal, state and local government web resources and services.